TimeCDT,TemperatureF,Dew PointF,Humidity,Sea Level PressureIn,VisibilityMPH,Wind Direction,Wind SpeedMPH,Gust SpeedMPH,PrecipitationIn,Events,Conditions,WindDirDegrees,DateUTC
12:15 AM,61.7,59.0,91,30.07,10.0,Calm,Calm,-,N/A,,Mostly Cloudy,0,2013-07-11 05:15:00
12:35 AM,61.7,59.0,91,30.07,10.0,Calm,Calm,-,N/A,,Mostly Cloudy,0,2013-07-11 05:35:00
12:55 AM,61.7,59.0,91,30.08,10.0,Calm,Calm,-,N/A,,Mostly Cloudy,0,2013-07-11 05:55:00
1:15 AM,62.1,58.6,89,30.08,10.0,Calm,Calm,-,N/A,,Scattered Clouds,0,2013-07-11 06:15:00
1:35 AM,59.0,56.7,92,30.09,10.0,Calm,Calm,-,N/A,,Scattered Clouds,0,2013-07-11 06:35:00
1:55 AM,59.0,56.8,93,30.09,10.0,WNW,3.5,-,N/A,,Scattered Clouds,290,2013-07-11 06:55:00
2:15 AM,59.0,56.7,92,30.09,10.0,Calm,Calm,-,N/A,,Scattered Clouds,0,2013-07-11 07:15:00
2:35 AM,59.2,57.0,93,30.09,10.0,Calm,Calm,-,N/A,,Clear,0,2013-07-11 07:35:00
2:55 AM,59.0,57.2,94,30.09,7.0,Calm,Calm,-,N/A,,Clear,0,2013-07-11 07:55:00
3:15 AM,59.0,56.7,92,30.10,7.0,Calm,Calm,-,N/A,,Clear,0,2013-07-11 08:15:00
3:35 AM,59.0,57.2,94,30.10,10.0,Calm,Calm,-,N/A,,Clear,0,2013-07-11 08:35:00
3:55 AM,58.8,56.5,92,30.10,10.0,Calm,Calm,-,N/A,,Clear,0,2013-07-11 08:55:00
4:15 AM,59.0,56.8,93,30.10,10.0,Calm,Calm,-,N/A,,Clear,0,2013-07-11 09:15:00
4:35 AM,59.0,57.2,94,30.10,7.0,Calm,Calm,-,N/A,,Clear,0,2013-07-11 09:35:00
4:55 AM,56.5,54.5,93,30.11,10.0,Calm,Calm,-,N/A,,Clear,0,2013-07-11 09:55:00
5:15 AM,57.4,55.4,93,30.11,7.0,Calm,Calm,-,N/A,,Clear,0,2013-07-11 10:15:00
5:35 AM,56.5,54.5,93,30.12,7.0,Calm,Calm,-,N/A,,Clear,0,2013-07-11 10:35:00
5:55 AM,56.5,54.5,93,30.12,7.0,Calm,Calm,-,N/A,,Clear,0,2013-07-11 10:55:00
6:15 AM,58.3,56.3,93,30.13,3.0,Calm,Calm,-,N/A,,Clear,0,2013-07-11 11:15:00
6:35 AM,59.0,57.2,94,30.13,5.0,Calm,Calm,-,N/A,,Clear,0,2013-07-11 11:35:00
6:55 AM,61.7,59.4,92,30.13,7.0,Calm,Calm,-,N/A,,Clear,0,2013-07-11 11:55:00
7:15 AM,61.9,59.2,91,30.14,7.0,Calm,Calm,-,N/A,,Clear,0,2013-07-11 12:15:00
7:35 AM,64.0,60.8,89,30.14,7.0,Calm,Calm,-,N/A,,Clear,0,2013-07-11 12:35:00
7:55 AM,64.8,60.3,85,30.14,10.0,Calm,Calm,-,N/A,,Clear,0,2013-07-11 12:55:00
8:15 AM,66.6,61.5,84,30.14,10.0,Calm,Calm,-,N/A,,Clear,0,2013-07-11 13:15:00
8:35 AM,67.5,62.4,84,30.15,10.0,Calm,Calm,-,N/A,,Clear,0,2013-07-11 13:35:00
8:55 AM,69.3,61.5,76,30.15,10.0,Calm,Calm,-,N/A,,Clear,0,2013-07-11 13:55:00
9:15 AM,71.8,63.1,74,30.15,10.0,NE,3.5,-,N/A,,Clear,40,2013-07-11 14:15:00
9:35 AM,74.3,63.0,68,30.15,10.0,North,5.8,-,N/A,,Clear,10,2013-07-11 14:35:00
9:55 AM,74.3,63.1,68,30.16,10.0,Calm,Calm,-,N/A,,Clear,0,2013-07-11 14:55:00
10:15 AM,74.3,59.2,59,30.16,10.0,North,4.6,-,N/A,,Clear,10,2013-07-11 15:15:00
10:35 AM,74.3,57.2,55,30.16,10.0,NNW,4.6,-,N/A,,Clear,330,2013-07-11 15:35:00
10:55 AM,76.1,57.7,53,30.16,10.0,NE,3.5,-,N/A,,Clear,40,2013-07-11 15:55:00
11:15 AM,77.0,58.6,53,30.16,10.0,North,6.9,-,N/A,,Clear,10,2013-07-11 16:15:00
11:35 AM,77.4,57.9,51,30.16,10.0,NE,5.8,-,N/A,,Clear,50,2013-07-11 16:35:00
11:55 AM,78.8,57.0,47,30.16,10.0,NNE,9.2,-,N/A,,Clear,30,2013-07-11 16:55:00
12:15 PM,79.3,57.9,48,30.16,10.0,NNE,6.9,-,N/A,,Clear,30,2013-07-11 17:15:00
12:35 PM,79.3,57.4,47,30.16,10.0,NNE,8.1,-,N/A,,Clear,20,2013-07-11 17:35:00
12:55 PM,79.3,57.9,48,30.15,10.0,North,4.6,-,N/A,,Clear,10,2013-07-11 17:55:00
1:15 PM,79.3,57.9,48,30.15,10.0,NNW,4.6,-,N/A,,Clear,330,2013-07-11 18:15:00
1:35 PM,79.3,57.7,47,30.15,10.0,North,3.5,-,N/A,,Clear,350,2013-07-11 18:35:00
1:55 PM,79.3,57.4,47,30.15,10.0,NNW,3.5,-,N/A,,Scattered Clouds,340,2013-07-11 18:55:00
2:15 PM,79.3,55.0,43,30.14,10.0,NE,6.9,-,N/A,,Scattered Clouds,50,2013-07-11 19:15:00
2:35 PM,79.3,54.0,41,30.14,10.0,ENE,5.8,-,N/A,,Clear,60,2013-07-11 19:35:00
2:55 PM,80.1,53.2,39,30.14,10.0,ENE,5.8,-,N/A,,Clear,60,2013-07-11 19:55:00
3:15 PM,80.6,55.2,42,30.14,10.0,ENE,8.1,-,N/A,,Clear,70,2013-07-11 20:15:00
3:35 PM,79.3,53.6,41,30.14,10.0,Calm,Calm,-,N/A,,Clear,0,2013-07-11 20:35:00
3:55 PM,79.7,54.3,41,30.14,10.0,ENE,5.8,-,N/A,,Scattered Clouds,70,2013-07-11 20:55:00
4:15 PM,79.3,56.1,45,30.13,10.0,ENE,6.9,-,N/A,,Scattered Clouds,70,2013-07-11 21:15:00
4:35 PM,79.7,55.8,44,30.13,10.0,East,5.8,-,N/A,,Scattered Clouds,80,2013-07-11 21:35:00
4:55 PM,79.5,54.7,42,30.13,10.0,East,5.8,-,N/A,,Clear,80,2013-07-11 21:55:00
5:15 PM,80.6,55.6,42,30.13,10.0,ENE,5.8,-,N/A,,Clear,60,2013-07-11 22:15:00
5:35 PM,79.3,52.5,39,30.13,10.0,Calm,Calm,-,N/A,,Clear,0,2013-07-11 22:35:00
5:55 PM,79.3,55.8,44,30.12,10.0,SE,4.6,-,N/A,,Clear,130,2013-07-11 22:55:00
6:15 PM,79.3,54.0,41,30.12,10.0,ENE,3.5,-,N/A,,Clear,70,2013-07-11 23:15:00
6:35 PM,79.3,53.6,41,30.12,10.0,East,4.6,-,N/A,,Clear,100,2013-07-11 23:35:00
6:55 PM,79.3,56.5,45,30.11,10.0,ESE,3.5,-,N/A,,Clear,110,2013-07-11 23:55:00
7:15 PM,79.3,57.2,47,30.12,10.0,Calm,Calm,-,N/A,,Clear,0,2013-07-12 00:15:00
7:35 PM,79.3,56.7,46,30.11,10.0,Calm,Calm,-,N/A,,Clear,0,2013-07-12 00:35:00
7:55 PM,77.0,58.5,53,30.11,10.0,Calm,Calm,-,N/A,,Clear,0,2013-07-12 00:55:00
8:15 PM,74.3,65.8,75,30.11,10.0,SE,3.5,-,N/A,,Clear,130,2013-07-12 01:15:00
8:35 PM,73.9,66.6,78,30.11,10.0,South,3.5,-,N/A,,Clear,180,2013-07-12 01:35:00
8:55 PM,69.3,63.3,81,30.11,10.0,SSW,3.5,-,N/A,,Clear,200,2013-07-12 01:55:00
9:15 PM,70.9,61.9,73,30.11,10.0,SSW,3.5,-,N/A,,Clear,210,2013-07-12 02:15:00
9:35 PM,66.6,61.0,82,30.12,10.0,SSW,3.5,-,N/A,,Clear,200,2013-07-12 02:35:00
9:55 PM,67.3,58.6,74,30.12,10.0,SSW,3.5,-,N/A,,Clear,210,2013-07-12 02:55:00
10:15 PM,64.0,60.3,87,30.12,10.0,Calm,Calm,-,N/A,,Clear,0,2013-07-12 03:15:00
10:35 PM,64.0,60.1,87,30.12,10.0,Calm,Calm,-,N/A,,Clear,0,2013-07-12 03:35:00
10:55 PM,64.0,59.4,85,30.12,10.0,Calm,Calm,-,N/A,,Clear,0,2013-07-12 03:55:00
11:15 PM,64.0,59.5,85,30.12,10.0,Calm,Calm,-,N/A,,Clear,0,2013-07-12 04:15:00
11:35 PM,61.7,57.9,87,30.12,10.0,Calm,Calm,-,N/A,,Clear,0,2013-07-12 04:35:00
11:55 PM,63.5,59.2,86,30.13,10.0,Calm,Calm,-,N/A,,Clear,0,2013-07-12 04:55:00